User: anonymous   Login
Location: Unspecified
(0.0000°N, 0.0000°E)
Time: 12:35:02
(UTC+00:00)
Language:

COSMOS-2409 - Orbit

View from above orbital plane
View from above orbital plane
View from above satellite
View from above satellite

Ground track
Ground track

The orbit data is extracted from the following two-line orbital elements,

1 28420U 04037B   18171.71214334 +.00000019 +00000-0 +65496-4 0  9997
2 28420 082.4839 355.9723 0013292 189.9200 170.1611 12.45272827624573
Epoch (UTC): 20 June 2018 17:05:29
Eccentricity: 0.0013292
inclination: 82.4839°
perigee height: 1474 km
apogee height: 1495 km
right ascension of ascending node: 355.9723°
argument of perigee: 189.9200°
revolutions per day: 12.45272827
mean anomaly at epoch: 170.1611°
orbit number at epoch: 62457

The dashed part of the orbit path shows where the satellite is in the earth's shadow,  

DLR